datetime,storage
1988-09-08,77312.75
1988-09-09,77401.88
1988-09-10,76779.64
1988-09-11,77728.65
1988-09-12,77464.83
1988-09-13,75006.71
1988-09-14,74333.76
1988-09-15,74461.65
1988-09-16,74341.12
1988-09-17,73535.41
1988-09-18,72079.54
1988-09-19,74601.18
1988-09-20,34347.27
1988-09-21,9321.88
1988-09-22,8507.15
1988-09-23,8552.37
1988-09-24,8619.19
1988-09-25,8474.61
1988-09-26,8463.91
1988-09-27,7849.25
1988-09-28,8867.72
1988-09-29,9222.8
1988-09-30,8763.23
1988-10-01,
1988-10-02,
1988-10-03,
1988-10-04,
1988-10-05,
1988-10-06,
1988-10-07,
1988-10-08,
1988-10-09,
1988-10-10,
1988-10-11,
1988-10-12,
1988-10-13,
1988-10-14,
1988-10-15,
1988-10-16,
1988-10-17,
1988-10-18,
1988-10-19,
1988-10-20,
1988-10-21,
1988-10-22,
1988-10-23,
1988-10-24,
1988-10-25,
1988-10-26,0.0
1988-10-27,0.0
1988-10-28,0.0
1988-10-29,0.0
1988-10-30,0.0
1988-10-31,0.0
1988-11-01,0.0
1988-11-02,0.0
1988-11-03,0.0
1988-11-04,0.0
1988-11-05,0.0
1988-11-06,0.0
1988-11-07,0.0
1988-11-08,0.0
1988-11-09,0.0
1988-11-10,0.0
1988-11-11,0.0
1988-11-12,0.0
1988-11-13,0.0
1988-11-14,0.0
1988-11-15,0.0
1988-11-16,0.0
1988-11-17,0.0
1988-11-18,0.0
1988-11-19,0.0
1988-11-20,0.0
1988-11-21,0.0
1988-11-22,0.0
1988-11-23,0.0
1988-11-24,0.0
1988-11-25,0.0
1988-11-26,0.0
1988-11-27,0.0
1988-11-28,0.0
1988-11-29,0.0
1988-11-30,0.0
1988-12-01,0.0
1988-12-02,0.0
1988-12-03,0.0
1988-12-04,0.0
1988-12-05,0.0
1988-12-06,0.0
1988-12-07,0.0
1988-12-08,0.0
1988-12-09,0.0
1988-12-10,0.0
1988-12-11,0.0
1988-12-12,0.0
1988-12-13,0.0
1988-12-14,0.0
1988-12-15,0.0
1988-12-16,0.0
1988-12-17,0.0
1988-12-18,0.0
1988-12-19,0.0
1988-12-20,0.0
1988-12-21,0.0
1988-12-22,0.0
1988-12-23,0.0
1988-12-24,0.0
1988-12-25,0.0
1988-12-26,0.0
1988-12-27,0.0
1988-12-28,0.0
1988-12-29,0.0
1988-12-30,0.0
1988-12-31,0.0
1989-01-01,0.0
1989-01-02,0.0
1989-01-03,0.0
1989-01-04,0.0
1989-01-05,0.0
1989-01-06,0.0
1989-01-07,0.0
1989-01-08,0.0
1989-01-09,0.0
1989-01-10,0.0
1989-01-11,0.0
1989-01-12,0.0
1989-01-13,0.0
1989-01-14,0.0
1989-01-15,0.0
1989-01-16,0.0
1989-01-17,0.0
1989-01-18,0.0
1989-01-19,0.0
1989-01-20,0.0
1989-01-21,0.0
1989-01-22,0.0
1989-01-23,0.0
1989-01-24,0.0
1989-01-25,0.0
1989-01-26,0.0
1989-01-27,0.0
1989-01-28,0.0
1989-01-29,0.0
1989-01-30,0.0
1989-01-31,0.0
1989-02-01,0.0
1989-02-02,0.0
1989-02-03,0.0
1989-02-04,0.0
1989-02-05,0.0
1989-02-06,0.0
1989-02-07,0.0
1989-02-08,0.0
1989-02-09,0.0
1989-02-10,0.0
1989-02-11,0.0
1989-02-12,0.0
1989-02-13,0.0
1989-02-14,0.0
1989-02-15,0.0
1989-02-16,0.0
1989-02-17,0.0
1989-02-18,0.0
1989-02-19,0.0
1989-02-20,0.0
1989-02-21,0.0
1989-02-22,0.0
1989-02-23,0.0
1989-02-24,0.0
1989-02-25,0.0
1989-02-26,0.0
1989-02-27,0.0
1989-02-28,0.0
1989-03-01,0.0
1989-03-02,0.0
1989-03-03,3589.02
1989-03-04,8287.27
1989-03-05,9020.91
1989-03-06,9804.26
1989-03-07,10611.84
1989-03-08,11388.73
1989-03-09,12138.08
1989-03-10,12991.33
1989-03-11,13808.72
1989-03-12,14333.44
1989-03-13,14800.12
1989-03-14,15114.39
1989-03-15,15492.35
1989-03-16,15755.96
1989-03-17,15749.91
1989-03-18,15595.18
1989-03-19,15495.71
1989-03-20,15201.73
1989-03-21,15386.49
1989-03-22,15352.93
1989-03-23,15313.95
1989-03-24,15300.24
1989-03-25,15236.72
1989-03-26,15209.3
1989-03-27,14894.61
1989-03-28,14530.48
1989-03-29,14121.96
1989-03-30,13816.66
1989-03-31,13426.76
1989-04-01,12938.74
1989-04-02,12827.85
1989-04-03,12678.81
1989-04-04,12734.38
1989-04-05,12663.65
1989-04-06,12613.49
1989-04-07,12547.73
1989-04-08,12459.08
1989-04-09,12306.88
1989-04-10,12370.41
1989-04-11,12293.48
1989-04-12,12293.64
1989-04-13,12257.75
1989-04-14,12211.31
1989-04-15,12154.72
1989-04-16,12144.25
1989-04-17,12056.04
1989-04-18,11958.13
1989-04-19,11529.58
1989-04-20,11090.25
1989-04-21,10672.25
1989-04-22,10393.79
1989-04-23,10209.99
1989-04-24,10023.6
1989-04-25,9773.25
1989-04-26,9735.85
1989-04-27,9343.93
1989-04-28,9208.97
1989-04-29,9117.01
1989-04-30,8917.95
1989-05-01,8599.68
1989-05-02,8240.77
1989-05-03,7847.65
1989-05-04,7487.67
1989-05-05,7138.0
1989-05-06,6805.46
1989-05-07,6542.39
1989-05-08,6413.02
1989-05-09,6385.16
1989-05-10,6369.7
1989-05-11,6419.45
1989-05-12,6325.41
1989-05-13,6153.09
1989-05-14,6166.34
1989-05-15,6266.56
1989-05-16,6449.9
1989-05-17,6583.11
1989-05-18,6638.26
1989-05-19,6698.57
1989-05-20,6806.39
1989-05-21,6831.89
1989-05-22,6832.01
1989-05-23,6801.06
1989-05-24,6724.79
1989-05-25,6641.75
1989-05-26,6623.13
1989-05-27,6698.82
1989-05-28,6657.44
1989-05-29,6512.0
1989-05-30,
1989-05-31,
1989-06-01,6150.09
1989-06-02,6077.05
1989-06-03,5962.75
1989-06-04,5908.59
1989-06-05,5843.84
1989-06-06,5639.67
1989-06-07,5438.27
1989-06-08,5313.45
1989-06-09,5163.32
1989-06-10,5055.27
1989-06-11,4926.69
1989-06-12,4773.91
1989-06-13,4711.46
1989-06-14,4637.49
1989-06-15,
1989-06-16,4416.62
1989-06-17,4285.89
1989-06-18,4230.85
1989-06-19,4162.21
1989-06-20,4086.86
1989-06-21,3913.24
1989-06-22,3864.54
1989-06-23,3788.32
1989-06-24,3721.55
1989-06-25,3706.35
1989-06-26,
1989-06-27,
1989-06-28,
1989-06-29,
1989-06-30,
1989-07-01,3328.3
1989-07-02,3282.5
1989-07-03,3264.79
1989-07-04,3205.7
1989-07-05,3101.37
1989-07-06,3059.41
1989-07-07,3013.22
1989-07-08,2949.51
1989-07-09,2913.32
1989-07-10,2836.14
1989-07-11,2798.99
1989-07-12,2773.2
1989-07-13,2799.95
1989-07-14,2832.9
1989-07-15,2858.46
1989-07-16,2838.47
1989-07-17,2793.6
1989-07-18,2740.29
1989-07-19,14291.92
1989-07-20,2651.4
1989-07-21,2608.51
1989-07-22,2555.75
1989-07-23,2514.32
1989-07-24,2475.95
1989-07-25,2456.69
1989-07-26,2458.0
1989-07-27,2414.1
1989-07-28,2376.92
1989-07-29,2333.82
1989-07-30,2282.73
1989-07-31,2275.14
1989-08-01,2263.25
1989-08-02,2209.95
1989-08-03,2180.93
1989-08-04,2146.36
1989-08-05,2099.59
1989-08-06,2075.17
1989-08-07,2077.23
1989-08-08,2043.45
1989-08-09,2055.98
1989-08-10,2102.44
1989-08-11,2108.09
1989-08-12,2211.24
1989-08-13,2196.79
1989-08-14,2189.65
1989-08-15,2170.47
1989-08-16,2157.54
1989-08-17,2164.52
1989-08-18,2136.69
1989-08-19,2102.92
1989-08-20,2176.97
1989-08-21,2153.82
1989-08-22,2101.2
1989-08-23,2093.4
1989-08-24,2080.24
1989-08-25,2030.93
1989-08-26,2009.68
1989-08-27,2030.77
1989-08-28,2108.63
1989-08-29,2109.77
1989-08-30,2198.7
1989-08-31,2273.53
1989-09-01,2254.51
1989-09-02,2248.49
1989-09-03,2234.05
1989-09-04,2209.47
1989-09-05,2286.69
1989-09-06,2288.77
1989-09-07,2262.91
1989-09-08,2207.89
1989-09-09,2252.35
1989-09-10,2335.99
1989-09-11,2362.52
1989-09-12,2389.6
1989-09-13,2400.87
1989-09-14,2388.65
1989-09-15,2384.85
1989-09-16,2382.15
1989-09-17,2404.0
1989-09-18,2392.62
1989-09-19,2387.63
1989-09-20,2430.01
1989-09-21,2358.68
1989-09-22,2346.63
1989-09-23,2366.51
1989-09-24,2326.34
1989-09-25,2318.72
1989-09-26,2301.61
1989-09-27,2265.92
1989-09-28,2247.85
1989-09-29,2237.82
1989-09-30,2285.07
1989-10-01,9935.63
1989-10-02,9406.31
1989-10-03,9246.26
1989-10-04,9855.62
1989-10-05,
1989-10-06,
1989-10-07,
1989-10-08,
1989-10-09,
1989-10-10,
1989-10-11,1814.65
1989-10-12,1916.38
1989-10-13,1841.28
1989-10-14,1759.08
1989-10-15,2134.04
1989-10-16,3223.48
1989-10-17,2855.85
1989-10-18,2400.56
1989-10-19,2051.49
1989-10-20,1384.82
1989-10-21,1321.42
1989-10-22,1613.43
1989-10-23,1657.11
1989-10-24,1276.91
1989-10-25,1464.08
1989-10-26,1777.07
1989-10-27,2458.24
1989-10-28,2272.81
1989-10-29,3048.4
1989-10-30,2624.86
1989-10-31,2274.58
1989-11-01,3020.3
1989-11-02,2976.23
1989-11-03,2118.47
1989-11-04,1627.55
1989-11-05,1773.58
1989-11-06,1842.71
1989-11-07,1690.81
1989-11-08,2049.52
1989-11-09,1927.99
1989-11-10,1775.96
1989-11-11,1558.28
1989-11-12,1315.19
1989-11-13,1399.82
1989-11-14,1798.97
1989-11-15,2905.15
1989-11-16,2583.09
1989-11-17,2315.35
1989-11-18,2344.05
1989-11-19,2204.69
1989-11-20,2037.77
1989-11-21,1982.14
1989-11-22,2508.49
1989-11-23,2432.86
1989-11-24,1851.75
1989-11-25,1959.42
1989-11-26,1645.03
1989-11-27,2290.38
1989-11-28,2551.29
1989-11-29,2408.41
1989-11-30,1959.73
1989-12-01,2308.58
1989-12-02,2633.06
1989-12-03,1919.87
1989-12-04,1467.2
1989-12-05,1218.34
1989-12-06,1548.07
1989-12-07,420.52
1989-12-08,0.0
1989-12-09,0.0
1989-12-10,0.0
1989-12-11,1072.3
1989-12-12,1821.84
1989-12-13,1952.36
1989-12-14,1780.4
1989-12-15,2334.27
1989-12-16,2263.23
1989-12-17,2080.24
1989-12-18,2031.26
1989-12-19,2393.56
1989-12-20,2603.41
1989-12-21,2966.26
1989-12-22,2836.33
1989-12-23,2310.1
1989-12-24,2482.2
1989-12-25,2302.2
1989-12-26,2118.14
1989-12-27,2101.17
1989-12-28,1730.13
1989-12-29,1944.75
1989-12-30,2081.04
1989-12-31,2260.01
1990-01-01,5200.0
1990-01-02,10000.33
1990-01-03,1972.42
1990-01-04,2472.34
1990-01-05,14731.99
1990-01-06,23853.88
1990-01-07,18081.08
1990-01-08,8119.16
1990-01-09,2542.19
1990-01-10,3723.79
1990-01-11,10057.49
1990-01-12,6254.13
1990-01-13,5490.92
1990-01-14,5747.98
1990-01-15,5945.0
1990-01-16,6038.79
1990-01-17,6592.25
1990-01-18,7431.61
1990-01-19,7060.34
1990-01-20,7661.7
1990-01-21,8113.24
1990-01-22,7916.33
1990-01-23,7929.96
1990-01-24,8753.94
1990-01-25,9237.67
1990-01-26,8521.64
1990-01-27,10043.25
1990-01-28,10253.08
1990-01-29,8345.45
1990-01-30,7690.46
1990-01-31,7792.86
1990-02-01,8153.96
1990-02-02,8653.1
1990-02-03,9716.71
1990-02-04,9556.17
1990-02-05,9481.45
1990-02-06,9970.3
1990-02-07,11138.94
1990-02-08,4112.87
1990-02-09,1914.32
1990-02-10,18760.79
1990-02-11,29189.57
1990-02-12,24447.39
1990-02-13,33446.98
1990-02-14,53490.8
1990-02-15,76792.73
1990-02-16,76945.14
1990-02-17,77319.3
1990-02-18,77709.61
1990-02-19,78095.04
1990-02-20,24732.29
1990-02-21,11654.59
1990-02-22,11790.58
1990-02-23,11930.2
1990-02-24,12125.88
1990-02-25,12303.53
1990-02-26,12464.41
1990-02-27,12663.64
1990-02-28,12778.04
1990-03-01,12943.32
1990-03-02,13124.12
1990-03-03,13268.48
1990-03-04,13393.7
1990-03-05,13777.32
1990-03-06,13674.11
1990-03-07,14325.98
1990-03-08,14188.36
1990-03-09,14299.15
1990-03-10,14453.97
1990-03-11,14383.59
1990-03-12,14520.73
1990-03-13,15132.13
1990-03-14,14991.68
1990-03-15,14948.02
1990-03-16,14926.36
1990-03-17,14920.22
1990-03-18,14909.41
1990-03-19,14652.81
1990-03-20,14481.39
1990-03-21,14458.73
1990-03-22,14566.67
1990-03-23,14859.38
1990-03-24,14385.55
1990-03-25,14268.04
1990-03-26,14340.28
1990-03-27,14265.23
1990-03-28,14433.4
1990-03-29,14275.7
1990-03-30,14399.84
1990-03-31,14390.33
1990-04-01,14423.29
1990-04-02,14352.2
1990-04-03,14279.3
1990-04-04,14374.42
1990-04-05,14664.02
1990-04-06,
1990-04-07,
1990-04-08,
1990-04-09,
1990-04-10,
1990-04-11,
1990-04-12,
1990-04-13,
1990-04-14,
1990-04-15,
1990-04-16,14312.26
1990-04-17,14020.92
1990-04-18,13836.87
1990-04-19,13701.32
1990-04-20,13851.47
1990-04-21,13750.47
1990-04-22,13359.07
1990-04-23,13456.86
1990-04-24,13337.32
1990-04-25,13727.73
1990-04-26,13512.8
1990-04-27,13354.87
1990-04-28,13286.19
1990-04-29,13626.11
1990-04-30,12702.82
1990-05-01,12122.21
1990-05-02,11725.38
1990-05-03,12655.93
1990-05-04,12477.75
1990-05-05,12591.83
1990-05-06,12522.25
1990-05-07,6976.23
1990-05-08,704.36
1990-05-09,0.0
1990-05-10,0.0
1990-05-11,6564.51
1990-05-12,18877.37
1990-05-13,18554.42
1990-05-14,13922.05
1990-05-15,11508.47
1990-05-16,11197.33
1990-05-17,11072.64
1990-05-18,10945.15
1990-05-19,10572.78
1990-05-20,10365.91
1990-05-21,10142.8
1990-05-22,9740.59
1990-05-23,9583.46
1990-05-24,9097.42
1990-05-25,8809.23
1990-05-26,8637.29
1990-05-27,8653.87
1990-05-28,9529.37
1990-05-29,14403.53
1990-05-30,19293.69
1990-05-31,11897.65
1990-06-01,43616.11
1990-06-02,960.71
1990-06-03,0.0
1990-06-04,0.0
1990-06-05,5681.03
1990-06-06,2757.72
1990-06-07,2245.87
1990-06-08,36291.28
1990-06-09,0.0
1990-06-10,1603.99
1990-06-11,1586.11
1990-06-12,1967.82
1990-06-13,2356.9
1990-06-14,2503.62
1990-06-15,9916.48
1990-06-16,2249.71
1990-06-17,2311.09
1990-06-18,1826.87
1990-06-19,1388.19
1990-06-20,2673.57
1990-06-21,3523.67
1990-06-22,4540.31
1990-06-23,2504.12
1990-06-24,2193.99
1990-06-25,2909.98
1990-06-26,3465.68
1990-06-27,3364.48
1990-06-28,2862.64
1990-06-29,2974.84
1990-06-30,2293.7
1990-07-01,1718.4
1990-07-02,1550.32
1990-07-03,9614.26
1990-07-04,1535.19
1990-07-05,572.09
1990-07-06,31.3
1990-07-07,0.0
1990-07-08,0.0
1990-07-09,0.0
1990-07-10,0.0
1990-07-11,0.0
1990-07-12,0.0
1990-07-13,0.0
1990-07-14,272.91
1990-07-15,542.26
1990-07-16,535.14
1990-07-17,246.8
1990-07-18,78.0
1990-07-19,0.0
1990-07-20,1287.09
1990-07-21,57109.08
1990-07-22,58502.71
1990-07-23,50555.79
1990-07-24,11803.91
1990-07-25,3963.28
1990-07-26,3985.23
1990-07-27,3880.13
1990-07-28,3798.14
1990-07-29,3770.04
1990-07-30,3718.74
1990-07-31,3753.87
1990-08-01,3696.51
1990-08-02,4065.78
1990-08-03,4239.87
1990-08-04,3703.44
1990-08-05,3672.84
1990-08-06,3689.49
1990-08-07,3664.56
1990-08-08,3725.77
1990-08-09,3708.44
1990-08-10,3562.93
1990-08-11,3320.02
1990-08-12,2782.05
1990-08-13,2789.56
1990-08-14,2754.91
1990-08-15,2707.18
1990-08-16,2696.79
1990-08-17,2319.2
1990-08-18,2155.88
1990-08-19,2141.29
1990-08-20,65988.27
1990-08-21,14291.19
1990-08-22,2084.84
1990-08-23,2095.09
1990-08-24,2086.03
1990-08-25,2071.36
1990-08-26,2006.35
1990-08-27,1968.04
1990-08-28,1872.2
1990-08-29,8041.73
1990-08-30,2657.18
1990-08-31,2549.51
1990-09-01,2560.71
1990-09-02,2559.0
1990-09-03,2548.6
1990-09-04,2535.62
1990-09-05,2471.71
1990-09-06,2422.71
1990-09-07,2418.59
1990-09-08,2394.88
1990-09-09,2401.32
1990-09-10,2339.66
1990-09-11,2185.76
1990-09-12,2060.88
1990-09-13,2024.52
1990-09-14,2029.66
1990-09-15,2068.98
1990-09-16,2053.28
1990-09-17,2072.28
1990-09-18,2042.57
1990-09-19,2052.02
1990-09-20,2025.85
1990-09-21,1992.79
1990-09-22,1998.42
1990-09-23,1984.7
1990-09-24,1970.76
1990-09-25,1935.3
1990-09-26,1630.06
1990-09-27,1911.31
1990-09-28,1936.52
1990-09-29,2015.39
1990-09-30,2043.29
1990-10-01,2363.92
1990-10-02,2638.34
1990-10-03,2872.52
1990-10-04,2427.35
1990-10-05,2399.17
1990-10-06,2477.19
1990-10-07,2800.24
1990-10-08,2408.92
1990-10-09,2370.7
1990-10-10,2240.12
1990-10-11,1675.9
1990-10-12,1705.08
1990-10-13,1664.96
1990-10-14,1665.91
1990-10-15,1647.99
1990-10-16,1661.79
1990-10-17,1566.97
1990-10-18,1599.47
1990-10-19,1599.95
1990-10-20,1604.39
1990-10-21,1697.15
1990-10-22,1694.45
1990-10-23,1685.42
1990-10-24,1683.51
1990-10-25,1682.72
1990-10-26,1693.82
1990-10-27,1687.63
1990-10-28,1679.87
1990-10-29,1674.36
1990-10-30,1669.65
1990-10-31,1661.63
1990-11-01,1635.31
1990-11-02,1567.87
1990-11-03,1668.45
1990-11-04,1712.69
1990-11-05,1700.64
1990-11-06,1627.54
1990-11-07,1680.82
1990-11-08,1667.02
1990-11-09,26212.11
1990-11-10,1502.43
1990-11-11,1510.99
1990-11-12,1504.65
1990-11-13,1504.81
1990-11-14,1499.74
1990-11-15,1508.93
1990-11-16,1674.95
1990-11-17,1975.9
1990-11-18,2263.55
1990-11-19,2546.18
1990-11-20,2888.88
1990-11-21,3217.44
1990-11-22,3652.05
1990-11-23,4080.21
1990-11-24,4511.16
1990-11-25,4980.61
1990-11-26,5410.38
1990-11-27,5819.87
1990-11-28,6262.13
1990-11-29,6686.1
1990-11-30,7116.2
1990-12-01,7445.44
1990-12-02,7686.23
1990-12-03,11467.13
1990-12-04,8622.02
1990-12-05,8921.97
1990-12-06,9299.63
1990-12-07,17165.72
1990-12-08,9843.67
1990-12-09,10138.59
1990-12-10,10384.1
1990-12-11,10682.19
1990-12-12,11044.7
1990-12-13,11677.42
1990-12-14,11183.31
1990-12-15,11796.9
1990-12-16,11950.52
1990-12-17,12438.59
1990-12-18,12572.43
1990-12-19,13076.13
1990-12-20,14739.7
1990-12-21,14714.89
1990-12-22,15013.56
1990-12-23,15839.3
1990-12-24,15150.84
1990-12-25,14925.46
1990-12-26,14051.98
1990-12-27,13258.59
1990-12-28,12159.72
1990-12-29,14578.9
1990-12-30,15652.05
1990-12-31,15289.93
1991-01-01,14719.81
1991-01-02,15650.98
1991-01-03,15755.16
1991-01-04,14582.87
1991-01-05,14728.35
1991-01-06,15645.6
1991-01-07,22510.84
1991-01-08,14739.09
1991-01-09,15096.45
1991-01-10,14799.95
1991-01-11,15329.25
1991-01-12,14998.48
1991-01-13,14040.04
1991-01-14,14259.45
1991-01-15,14472.29
1991-01-16,12864.31
1991-01-17,15783.16
1991-01-18,15537.47
1991-01-19,14396.83
1991-01-20,16384.61
1991-01-21,16190.93
1991-01-22,15159.11
1991-01-23,14007.9
1991-01-24,13609.51
1991-01-25,14460.46
1991-01-26,13954.51
1991-01-27,13114.52
1991-01-28,12651.31
1991-01-29,14429.72
1991-01-30,14359.06
1991-01-31,14632.81
1991-02-01,14389.37
1991-02-02,13807.06
1991-02-03,13425.39
1991-02-04,14071.8
1991-02-05,13844.48
1991-02-06,13951.63
1991-02-07,11779.35
1991-02-08,10813.41
1991-02-09,10579.08
1991-02-10,11031.13
1991-02-11,10786.6
1991-02-12,10427.58
1991-02-13,11005.62
1991-02-14,11806.57
1991-02-15,11846.0
1991-02-16,10491.05
1991-02-17,10459.69
1991-02-18,12311.21
1991-02-19,12177.62
1991-02-20,11609.54
1991-02-21,11776.55
1991-02-22,11767.31
1991-02-23,11377.46
1991-02-24,12744.61
1991-02-25,12761.72
1991-02-26,11678.27
1991-02-27,10584.51
1991-02-28,10691.05
1991-03-01,9926.04
1991-03-02,12587.74
1991-03-03,11577.75
1991-03-04,10172.58
1991-03-05,9219.07
1991-03-06,
1991-03-07,17071.99
1991-03-08,13773.12
1991-03-09,12864.93
1991-03-10,12018.06
1991-03-11,11757.02
1991-03-12,14749.46
1991-03-13,15011.17
1991-03-14,12009.16
1991-03-15,14581.73
1991-03-16,15096.04
1991-03-17,14783.1
1991-03-18,14340.65
1991-03-19,13801.77
1991-03-20,12813.93
1991-03-21,13950.3
1991-03-22,14506.88
1991-03-23,14469.73
1991-03-24,11810.31
1991-03-25,13020.0
1991-03-26,13243.02
1991-03-27,14789.83
1991-03-28,14462.51
1991-03-29,14860.84
1991-03-30,15012.46
1991-03-31,14337.52
1991-04-01,13688.54
1991-04-02,13999.14
1991-04-03,14569.43
1991-04-04,13715.36
1991-04-05,14481.76
1991-04-06,14310.19
1991-04-07,14075.14
1991-04-08,13918.06
1991-04-09,14124.28
1991-04-10,14678.44
1991-04-11,14378.21
1991-04-12,14237.08
1991-04-13,14238.88
1991-04-14,14176.38
1991-04-15,14139.28
1991-04-16,13993.13
1991-04-17,14040.04
1991-04-18,14038.6
1991-04-19,14057.45
1991-04-20,13952.18
1991-04-21,13804.39
1991-04-22,13857.8
1991-04-23,13806.91
1991-04-24,13750.26
1991-04-25,13732.57
1991-04-26,13713.88
1991-04-27,13508.46
1991-04-28,13164.19
1991-04-29,12828.21
1991-04-30,12344.02
1991-05-01,11933.39
1991-05-02,11525.91
1991-05-03,11002.38
1991-05-04,10632.51
1991-05-05,10363.75
1991-05-06,9980.96
1991-05-07,9572.0
1991-05-08,9203.8
1991-05-09,8918.45
1991-05-10,8630.38
1991-05-11,8272.58
1991-05-12,7751.81
1991-05-13,7335.87
1991-05-14,6974.66
1991-05-15,6472.62
1991-05-16,6026.16
1991-05-17,5814.8
1991-05-18,5805.82
1991-05-19,5743.12
1991-05-20,5668.94
1991-05-21,5692.39
1991-05-22,5567.13
1991-05-23,5514.77
1991-05-24,5500.25
1991-05-25,5535.51
1991-05-26,5486.43
1991-05-27,5409.69
1991-05-28,5322.81
1991-05-29,5139.38
1991-05-30,5035.36
1991-05-31,4834.74
1991-06-01,4669.52
1991-06-02,4472.08
1991-06-03,4299.29
1991-06-04,4266.16
1991-06-05,4229.08
1991-06-06,4230.48
1991-06-07,4190.18
1991-06-08,
1991-06-09,
1991-06-10,3831.4
1991-06-11,3740.01
1991-06-12,3596.62
1991-06-13,3452.45
1991-06-14,3340.81
1991-06-15,3398.94
1991-06-16,3515.58
1991-06-17,3673.22
1991-06-18,3822.58
1991-06-19,3916.89
1991-06-20,3926.33
1991-06-21,3857.83
1991-06-22,3838.57
1991-06-23,3913.24
1991-06-24,3858.39
1991-06-25,3889.01
1991-06-26,3786.8
1991-06-27,3597.19
1991-06-28,16176.3
1991-06-29,3464.77
1991-06-30,3388.93
1991-07-01,3279.8
1991-07-02,3298.28
1991-07-03,3305.2
1991-07-04,3326.38
1991-07-05,3290.58
1991-07-06,3258.82
1991-07-07,3189.91
1991-07-08,3148.96
1991-07-09,3071.73
1991-07-10,3022.84
1991-07-11,3069.04
1991-07-12,3213.78
1991-07-13,3177.79
1991-07-14,3147.76
1991-07-15,3118.39
1991-07-16,3350.44
1991-07-17,3512.12
1991-07-18,3425.5
1991-07-19,3454.95
1991-07-20,3421.27
1991-07-21,3403.37
1991-07-22,3416.26
1991-07-23,3594.19
1991-07-24,3616.44
1991-07-25,3716.34
1991-07-26,3666.74
1991-07-27,3641.85
1991-07-28,3616.83
1991-07-29,3577.94
1991-07-30,3480.17
1991-07-31,3407.02
1991-08-01,3344.74
1991-08-02,3315.65
1991-08-03,3338.12
1991-08-04,3345.62
1991-08-05,3324.26
1991-08-06,3318.29
1991-08-07,3263.44
1991-08-08,3222.82
1991-08-09,3200.3
1991-08-10,3179.89
1991-08-11,3148.91
1991-08-12,3087.13
1991-08-13,3049.07
1991-08-14,3039.4
1991-08-15,6405.55
1991-08-16,2878.68
1991-08-17,2918.33
1991-08-18,2897.64
1991-08-19,2971.84
1991-08-20,2979.53
1991-08-21,2979.34
1991-08-22,2947.39
1991-08-23,2903.31
1991-08-24,2878.29
1991-08-25,2851.35
1991-08-26,2798.03
1991-08-27,2749.91
1991-08-28,2679.19
1991-08-29,2667.14
1991-08-30,2620.59
1991-08-31,2601.0
1991-09-01,2580.68
1991-09-02,2527.0
1991-09-03,2501.33
1991-09-04,2500.66
1991-09-05,2455.41
1991-09-06,2448.26
1991-09-07,2408.94
1991-09-08,2357.73
1991-09-09,2327.78
1991-09-10,2340.6
1991-09-11,2324.02
1991-09-12,2294.94
1991-09-13,2272.69
1991-09-14,2232.78
1991-09-15,2202.5
1991-09-16,2276.08
1991-09-17,2203.57
1991-09-18,2175.22
1991-09-19,2165.23
1991-09-20,2119.88
1991-09-21,2110.37
1991-09-22,2036.0
1991-09-23,1987.64
1991-09-24,1989.86
1991-09-25,1947.48
1991-09-26,1962.59
1991-09-27,1956.4
1991-09-28,1948.32
1991-09-29,1897.89
1991-09-30,1805.26
1991-10-01,2048.95
1991-10-02,2008.26
1991-10-03,1854.6
1991-10-04,1816.86
1991-10-05,1816.71
1991-10-06,1787.53
1991-10-07,1760.1
1991-10-08,1698.1
1991-10-09,1722.6
1991-10-10,1731.4
1991-10-11,1668.35
1991-10-12,1647.36
1991-10-13,1584.57
1991-10-14,1561.26
1991-10-15,1552.54
1991-10-16,1551.43
1991-10-17,1532.08
1991-10-18,1480.71
1991-10-19,1481.98
1991-10-20,1462.63
1991-10-21,1461.36
1991-10-22,1449.95
1991-10-23,1413.75
1991-10-24,1416.77
1991-10-25,1388.58
1991-10-26,1380.5
1991-10-27,1418.71
1991-10-28,1168.11
1991-10-29,696.04
1991-10-30,0.0
1991-10-31,12517.21
1991-11-01,0.0
1991-11-02,0.0
1991-11-03,0.0
1991-11-04,0.0
1991-11-05,4467.98
1991-11-06,2739.81
1991-11-07,2634.62
1991-11-08,3724.94
1991-11-09,4089.73
1991-11-10,3468.62
1991-11-11,2636.74
1991-11-12,2351.87
1991-11-13,2365.35
1991-11-14,2657.17
1991-11-15,4107.64
1991-11-16,4418.99
1991-11-17,4446.51
1991-11-18,4551.95
1991-11-19,4811.8
1991-11-20,4701.09
1991-11-21,5057.76
1991-11-22,5304.98
1991-11-23,5337.33
1991-11-24,5655.8
1991-11-25,5925.18
1991-11-26,6141.57
1991-11-27,6357.2
1991-11-28,6665.66
1991-11-29,7213.61
1991-11-30,7385.31
1991-12-01,7657.64
1991-12-02,7965.06
1991-12-03,8149.63
1991-12-04,8447.88
1991-12-05,8772.32
1991-12-06,9042.66
1991-12-07,9346.17
1991-12-08,9819.44
1991-12-09,10170.25
1991-12-10,11014.34
1991-12-11,11928.96
1991-12-12,12329.2
1991-12-13,12697.93
1991-12-14,13100.31
1991-12-15,13587.14
1991-12-16,14008.28
1991-12-17,14393.7
1991-12-18,14708.39
1991-12-19,15056.64
1991-12-20,15362.85
1991-12-21,15762.61
1991-12-22,16173.06
1991-12-23,16590.72
1991-12-24,16909.24
1991-12-25,17278.72
1991-12-26,17531.14
1991-12-27,17864.79
1991-12-28,17911.78
1991-12-29,17887.89
1991-12-30,17880.72
1991-12-31,18000.16
1992-01-01,17976.67
1992-01-02,17940.04
1992-01-03,17941.24
1992-01-04,17978.66
1992-01-05,17927.3
1992-01-06,17904.86
1992-01-07,18037.91
1992-01-08,18269.71
1992-01-09,18260.55
1992-01-10,18241.84
1992-01-11,18157.03
1992-01-12,18190.88
1992-01-13,18077.74
1992-01-14,18002.07
1992-01-15,17972.93
1992-01-16,18135.93
1992-01-17,18342.97
1992-01-18,18516.96
1992-01-19,18599.77
1992-01-20,18692.0
1992-01-21,18523.81
1992-01-22,18401.5
1992-01-23,18421.56
1992-01-24,18339.39
1992-01-25,18270.51
1992-01-26,15453.77
1992-01-27,18308.73
1992-01-28,18352.13
1992-01-29,18272.5
1992-01-30,18270.11
1992-01-31,18310.19
1992-02-01,18327.04
1992-02-02,18332.62
1992-02-03,18314.3
1992-02-04,18338.19
1992-02-05,18342.57
1992-02-06,18290.41
1992-02-07,18322.66
1992-02-08,18326.25
1992-02-09,18268.52
1992-02-10,18254.18
1992-02-11,18352.92
1992-02-12,18358.9
1992-02-13,18394.68
1992-02-14,18394.33
1992-02-15,18299.97
1992-02-16,18374.82
1992-02-17,18369.42
1992-02-18,18295.99
1992-02-19,18248.61
1992-02-20,18332.22
1992-02-21,18323.06
1992-02-22,18284.84
1992-02-23,18875.6
1992-02-24,18312.31
1992-02-25,18663.88
1992-02-26,18626.85
1992-02-27,18864.55
1992-02-28,
1992-02-29,
1992-03-01,18634.01
1992-03-02,18649.46
1992-03-03,18718.42
1992-03-04,18819.1
1992-03-05,18953.84
1992-03-06,19014.56
1992-03-07,19551.51
1992-03-08,20107.83
1992-03-09,20882.51
1992-03-10,20660.65
1992-03-11,21246.61
1992-03-12,22087.37
1992-03-13,22685.46
1992-03-14,23100.45
1992-03-15,23528.8
1992-03-16,24026.78
1992-03-17,24227.6
1992-03-18,24804.73
1992-03-19,24565.98
1992-03-20,23793.63
1992-03-21,24440.84
1992-03-22,24265.68
1992-03-23,23983.28
1992-03-24,24631.8
1992-03-25,24313.41
1992-03-26,23825.24
1992-03-27,24358.48